Weather History for KRAL - October, 2014

Change the Weather History Date:

Friday, October 3, 2014

  Actual Average Record
Temperature  
Mean Temperature 80 °F 72 °F  
Max Temperature 101 °F 85 °F 108 °F (1917)
Min Temperature 59 °F 58 °F 40 °F (1916)
Degree Days  
Heating Degree Days 0 0  
Month to date heating degree days 0 0  
Since 1 July heating degree days 0 2  
Cooling Degree Days 15 7  
Month to date cooling degree days 38 22  
Year to date cooling degree days 2081 1614  
Growing Degree Days 30 (Base 50)    
Moisture  
Dew Point 21 °F    
Average Humidity 16    
Maximum Humidity 30    
Minimum Humidity 2    
Precipitation  
Precipitation 0.00 in 0.00 in 0.65 in (1912)
Month to date precipitation 0.00 0.00  
Year to date precipitation 2.09 9.59  
Since 1 July precipitation 0.37 0.40  
Snow  
Snow 0.00 in - - ()
Month to date snowfall 0.0  
Year to date snowfall 0.0  
Since 1 July snowfall 0.0  
Snow Depth 0.00 in    
Sea Level Pressure  
Sea Level Pressure 29.96 in    
Wind  
Wind Speed 5 mph (ENE)    
Max Wind Speed 9 mph    
Max Gust Speed 12 mph    
Visibility 10 miles    
Events      
T = Trace of Precipitation, MM = Missing Value Source: NWS Daily Summary

Daily Weather History Graph

Daily Weather History Graph

Search for Another Location

Airport or City:

Trip Planner

Search our weather history database for the weather conditions in past years. The results will help you decide how hot, cold, wet, or windy it might be!

Date:

Astronomy

Oct. 03, 2014 Rise Set
Actual Time 6:45 AM PDT 6:31 PM PDT
Civil Twilight 6:20 AM PDT 6:56 PM PDT
Nautical Twilight 5:51 AM PDT 7:25 PM PDT
Astronomical Twilight 5:22 AM PDT 7:54 PM PDT
Moon 3:16 PM PDT (10/3) 1:25 AM PDT (10/3)
Length of Visible Light 12h 35m
Length of Day
11h 45m
Waxing Gibbous, 72% of the Moon is Illuminated
Oct 3
Waxing Gibbous
Oct 8
Full
Oct 15
Last Quarter
Oct 23
New
Oct 30
First Quarter

Hourly Weather History & Observations

Time (PDT) Temp. Dew Point Humidity Pressure Visibility Wind Dir Wind Speed Gust Speed Precip Events Conditions
12:53 AM 73.0 °F 23.0 °F 15% 29.96 in 10.0 mi NNE 8.1 mph - N/A   Clear
1:53 AM 68.0 °F 27.0 °F 21% 29.97 in 10.0 mi East 4.6 mph - N/A   Clear
2:53 AM 68.0 °F 25.0 °F 20% 29.97 in 10.0 mi ENE 6.9 mph - N/A   Clear
3:53 AM 66.0 °F 24.1 °F 20% 29.97 in 10.0 mi NE 8.1 mph - N/A   Clear
4:53 AM 63.0 °F 28.0 °F 27% 29.98 in 10.0 mi ENE 5.8 mph - N/A   Clear
5:53 AM 61.0 °F 28.0 °F 29% 29.99 in 10.0 mi ENE 4.6 mph - N/A   Clear
6:53 AM 62.1 °F 27.0 °F 26% 30.00 in 10.0 mi East 4.6 mph - N/A   Clear
7:53 AM 63.0 °F 30.0 °F 29% 30.02 in 10.0 mi ENE 5.8 mph - N/A   Clear
8:53 AM 72.0 °F 28.0 °F 20% 30.02 in 10.0 mi NE 3.5 mph - N/A   Clear
9:53 AM 81.0 °F 23.0 °F 12% 30.03 in 10.0 mi Variable 3.5 mph - N/A   Clear
10:53 AM 90.0 °F 21.9 °F 8% 30.01 in 10.0 mi ESE 5.8 mph - N/A   Clear
11:53 AM 93.9 °F 10.9 °F 5% 29.99 in 10.0 mi Calm Calm - N/A   Clear
12:53 PM 96.1 °F 9.0 °F 4% 29.97 in 10.0 mi North - - N/A   Clear
1:53 PM 98.1 °F 5.0 °F 4% 29.94 in 10.0 mi North - - N/A   Clear
2:53 PM 100.0 °F 1.9 °F 4% 29.92 in 10.0 mi Variable 3.5 mph - N/A   Clear
3:53 PM 100.9 °F 1.9 °F 4% 29.91 in 10.0 mi NE 6.9 mph - N/A   Clear
4:53 PM 99.0 °F 3.9 °F 4% 29.89 in 10.0 mi Variable 5.8 mph - N/A   Clear
5:53 PM 98.1 °F 14.0 °F 5% 29.90 in 10.0 mi Calm Calm - N/A   Clear
6:53 PM 91.9 °F 18.0 °F 7% 29.91 in 10.0 mi West 3.5 mph - N/A   Clear
7:53 PM 87.1 °F 24.1 °F 10% 29.93 in 10.0 mi West 4.6 mph - N/A   Clear
8:53 PM 82.0 °F 28.9 °F 14% 29.93 in 10.0 mi SSE 3.5 mph - N/A   Clear
9:53 PM 78.1 °F 30.9 °F 18% 29.93 in 10.0 mi Calm Calm - N/A   Clear
10:53 PM 73.0 °F 36.0 °F 26% 29.94 in 10.0 mi East 4.6 mph - N/A   Clear
11:53 PM 69.1 °F 37.9 °F 32% 29.94 in 10.0 mi ENE 5.8 mph - N/A   Clear